Vertical_Velocity
-13 -19 2 -2 -7 -3 2 4 5 -13 -6 -5 -3 0 13 12 5 1 -7 -2 -1 -4
-6 -9 -4 4 -1 4 4 2 -3 1 2 4 2 3 -0 3 14 4 2 -1 2 4
5 9 3 1 2 6 -2 -3 7 3 -3 -2 -1 1 -0 1 7 2 -4 2 1 -4
-3 -1 -0 -1 1 -2 5 2 -1 -1 -2 -3 -0 6 1 7 1 -0 -2 1 2 0
-1 1 1 1 -2 -1 -5 1 -2 0 2 1 4 -2 10 -1 2 -1 -0 1 -1 1
-6 -1 -1 2 -1 2 2 -2 2 -3 2 -1 2 -0 -1 1 3 -5 -2 -1 -2 -4
-1 -6 -0 -3 -1 -1 3 -4 2 -1 -0 -5 -3 3 -2 3 1 3 6 2 6 3
1 -6 1 -5 -5 -1 -0 3 1 -3 -3 -4 1 1 4 -1 -2 -3 4 4 2 -0
5 -3 0 2 -3 3 -2 -9 -3 -4 0 0 -4 -2 -5 1 5 3 1 0 -3 -3
1 -2 0 -4 -6 0 -6 -0 6 3 5 -1 3 -2 -6 2 -1 1 0 1 2 -2
3 -5 -3 10 -1 -6 5 9 -6 -5 -5 11 11 4 -1 -4 1 -3 -1 7 5 0
2 -2 -2 -8 -6 -4 -0 -3 3 8 1 4 -7 -4 1 -1 -1 -0 8 -1 -4 6
-8 -1 -5 -6 -5 1 -5 4 3 2 1 12 -13 8 -2 3 3 4 -6 -0 11 -0
-10 -3 -10 -2 -0 1 2 -5 6 3 -4 -4 -5 8 -9 4 -3 3 -5 8 -2 2
Height
3076 3079 3084 3086 3087 3090 3092 3092 3096 3099 3101 3104 3103 3105 3105 3106 3106 3108 3110 3111 3111 3111
3074 3077 3078 3083 3084 3086 3089 3091 3092 3092 3095 3097 3098 3100 3100 3101 3101 3101 3103 3104 3105 3105
3074 3078 3079 3081 3082 3084 3085 3087 3088 3088 3089 3090 3091 3092 3092 3094 3095 3097 3098 3099 3098 3097
3073 3075 3077 3077 3078 3080 3081 3081 3081 3081 3083 3083 3085 3085 3085 3086 3087 3089 3089 3092 3090 3091
3069 3070 3072 3072 3074 3074 3074 3073 3074 3074 3074 3075 3076 3077 3077 3078 3081 3080 3081 3082 3084 3084
3064 3067 3067 3066 3066 3065 3065 3066 3065 3065 3066 3067 3068 3067 3069 3069 3071 3072 3073 3073 3075 3075
3059 3061 3061 3060 3058 3059 3059 3058 3058 3057 3058 3057 3060 3058 3059 3062 3062 3063 3063 3064 3065 3065
3052 3054 3053 3051 3051 3050 3049 3048 3048 3047 3048 3048 3050 3050 3051 3052 3052 3054 3054 3055 3056 3056
3043 3044 3045 3042 3041 3042 3039 3038 3038 3037 3037 3037 3039 3039 3040 3043 3043 3043 3044 3045 3044 3047
3037 3034 3034 3033 3033 3032 3030 3028 3029 3027 3025 3025 3025 3026 3028 3031 3032 3032 3034 3036 3036 3036
3030 3029 3027 3026 3021 3023 3022 3018 3019 3017 3015 3014 3014 3015 3017 3017 3019 3021 3023 3024 3025 3025
3022 3020 3018 3016 3015 3013 3012 3011 3008 3006 3005 3002 3002 3006 3007 3006 3007 3009 3010 3012 3014 3015
3016 3014 3010 3007 3004 3002 3001 3001 2996 2994 2992 2991 2992 2995 2994 2997 2996 2996 3004 3004 3003 3006
3003 3003 2999 2998 2992 2988 2986 2987 2983 2980 2982 2983 2981 2983 2985 2987 2987 2989 2994 2991 2992 2996